• In Kazakhstan
  • List of Countries
  • For 7 days
  • Water Temperature
  • Satellite Maps
  • Weather Map
  • News
  • Weather Widgets
  • user-avatar
    Login

    Hourly Weather Lubango

    Today, 19 November, Monday

    Time Temperature Precipitation Wind Pressure Humidity
    00:00 +18°C° 0 mm 1 mps 609 mmHg 63%
    01:00 +18°C° 0 mm 1 mps 609 mmHg 67%
    02:00 +18°C° 0 mm 1 mps 609 mmHg 68%
    03:00 +18°C° 0 mm 1 mps 609 mmHg 70%
    04:00 +18°C° 0 mm 1 mps 609 mmHg 71%
    05:00 +19°C° 0 mm 1 mps 609 mmHg 66%
    06:00 +18°C° 0 mm 0 mps 610 mmHg 61%
    07:00 +19°C° 0 mm 0 mps 611 mmHg 54%
    08:00 +24°C° 0 mm 1 mps 612 mmHg 45%
    09:00 +27°C° 0 mm 1 mps 612 mmHg 35%
    10:00 +30°C° 0 mm 2 mps 613 mmHg 25%
    11:00 +31°C° 0 mm 2 mps 613 mmHg 23%
    12:00 +32°C° 0 mm 2 mps 612 mmHg 21%
    13:00 +32°C° 0 mm 2 mps 612 mmHg 19%
    14:00 +31°C° 0 mm 3 mps 611 mmHg 23%
    15:00 +29°C° 0 mm 3 mps 610 mmHg 26%
    16:00 +28°C° 0 mm 3 mps 610 mmHg 30%
    17:00 +26°C° 0 mm 3 mps 609 mmHg 35%
    18:00 +24°C° 0 mm 3 mps 609 mmHg 41%
    19:00 +21°C° 0 mm 3 mps 609 mmHg 47%
    20:00 +20°C° 0 mm 2 mps 609 mmHg 51%
    21:00 +20°C° 0 mm 1 mps 609 mmHg 56%
    22:00 +19°C° 0 mm 1 mps 609 mmHg 61%
    23:00 +19°C° 0 mm 1 mps 609 mmHg 61%

    Tomorrow, 20 November, Tuesday

    Time Temperature Precipitation Wind Pressure Humidity
    00:00 +19°C° 0 mm 1 mps 609 mmHg 62%
    01:00 +19°C° 0 mm 1 mps 609 mmHg 63%
    02:00 +18°C° 0 mm 1 mps 609 mmHg 64%
    03:00 +18°C° 0 mm 1 mps 608 mmHg 66%
    04:00 +16°C° 0 mm 1 mps 608 mmHg 67%
    05:00 +19°C° 0 mm 1 mps 609 mmHg 63%
    06:00 +18°C° 0 mm 0 mps 610 mmHg 59%
    07:00 +19°C° 0 mm 0 mps 610 mmHg 55%
    08:00 +23°C° 0 mm 1 mps 611 mmHg 46%
    09:00 +26°C° 0 mm 1 mps 612 mmHg 37%
    10:00 +29°C° 0 mm 1 mps 613 mmHg 29%
    11:00 +29°C° 0 mm 2 mps 613 mmHg 28%
    12:00 +30°C° 0 mm 2 mps 613 mmHg 27%
    13:00 +30°C° 0 mm 3 mps 612 mmHg 26%
    14:00 +29°C° 0.1 mm 3 mps 611 mmHg 30%
    15:00 +27°C° 0.1 mm 3 mps 611 mmHg 33%
    16:00 +26°C° 0.1 mm 3 mps 610 mmHg 37%
    17:00 +24°C° 0.1 mm 3 mps 610 mmHg 42%
    18:00 +22°C° 0.1 mm 3 mps 609 mmHg 48%
    19:00 +20°C° 0.1 mm 2 mps 609 mmHg 53%
    20:00 +19°C° 0 mm 2 mps 610 mmHg 56%
    21:00 +20°C° 0 mm 1 mps 610 mmHg 59%
    22:00 +19°C° 0 mm 1 mps 610 mmHg 62%
    23:00 +19°C° 0 mm 1 mps 610 mmHg 63%

    Day after tomorrow, 21 November, Wednesday

    Time Temperature Precipitation Wind Pressure Humidity
    00:00 +19°C° 0 mm 1 mps 609 mmHg 64%
    01:00 +18°C° 0 mm 1 mps 609 mmHg 66%
    02:00 +18°C° 0 mm 1 mps 609 mmHg 66%
    03:00 +18°C° 0 mm 1 mps 608 mmHg 67%
    04:00 +16°C° 0 mm 1 mps 608 mmHg 68%
    05:00 +18°C° 0 mm 1 mps 609 mmHg 65%
    06:00 +19°C° 0 mm 1 mps 609 mmHg 61%
    07:00 +20°C° 0 mm 1 mps 610 mmHg 58%
    08:00 +22°C° 0 mm 1 mps 611 mmHg 50%
    09:00 +23°C° 0 mm 1 mps 612 mmHg 42%
    10:00 +25°C° 0 mm 1 mps 612 mmHg 35%
    11:00 +26°C° 0 mm 2 mps 612 mmHg 32%
    12:00 +27°C° 0 mm 2 mps 612 mmHg 30%
    13:00 +28°C° 0 mm 2 mps 612 mmHg 27%
    14:00 +27°C° 0 mm 3 mps 611 mmHg 29%
    15:00 +27°C° 0 mm 3 mps 611 mmHg 30%
    16:00 +26°C° 0 mm 3 mps 610 mmHg 32%
    17:00 +25°C° 0 mm 3 mps 610 mmHg 40%
    18:00 +22°C° 0 mm 3 mps 610 mmHg 49%
    19:00 +20°C° 0 mm 2 mps 610 mmHg 57%
    20:00 +19°C° 0 mm 2 mps 610 mmHg 62%
    21:00 +18°C° 0 mm 2 mps 610 mmHg 67%
    22:00 +19°C° 0 mm 1 mps 610 mmHg 72%
    23:00 +18°C° 0 mm 1 mps 610 mmHg 75%

    22 November, Thursday

    Time Temperature Precipitation Wind Pressure Humidity
    00:00 +18°C° 0 mm 1 mps 609 mmHg 78%
    01:00 +16°C° 0 mm 1 mps 608 mmHg 81%
    02:00 +16°C° 0 mm 1 mps 608 mmHg 82%
    03:00 +15°C° 0 mm 1 mps 608 mmHg 84%
    04:00 +15°C° 0 mm 1 mps 607 mmHg 85%
    05:00 +16°C° 0 mm 1 mps 608 mmHg 78%
    06:00 +17°C° 0 mm 0 mps 609 mmHg 70%
    07:00 +18°C° 0 mm 0 mps 610 mmHg 62%
    08:00 +22°C° 0 mm 1 mps 611 mmHg 52%
    09:00 +25°C° 0 mm 1 mps 612 mmHg 41%
    10:00 +28°C° 0 mm 1 mps 613 mmHg 31%
    11:00 +29°C° 0 mm 2 mps 612 mmHg 29%
    12:00 +30°C° 0 mm 2 mps 612 mmHg 27%
    13:00 +31°C° 0 mm 3 mps 612 mmHg 25%
    14:00 +30°C° 0.2 mm 3 mps 611 mmHg 29%
    15:00 +28°C° 0.2 mm 4 mps 610 mmHg 33%
    16:00 +26°C° 0.2 mm 4 mps 609 mmHg 38%
    17:00 +25°C° 0.7 mm 4 mps 609 mmHg 45%
    18:00 +22°C° 0.7 mm 3 mps 609 mmHg 52%
    19:00 +20°C° 0.7 mm 3 mps 609 mmHg 59%
    20:00 +19°C° 0.1 mm 2 mps 609 mmHg 64%
    21:00 +18°C° 0.1 mm 2 mps 609 mmHg 69%
    22:00 +18°C° 0.1 mm 1 mps 609 mmHg 73%
    23:00 +16°C° 0 mm 1 mps 609 mmHg 76%

    23 November, Friday

    Time Temperature Precipitation Wind Pressure Humidity
    00:00 +16°C° 0 mm 1 mps 608 mmHg 78%
    01:00 +15°C° 0 mm 1 mps 608 mmHg 81%
    02:00 +15°C° 0 mm 1 mps 608 mmHg 82%
    03:00 +15°C° 0 mm 1 mps 607 mmHg 84%
    04:00 +13°C° 0 mm 0 mps 607 mmHg 85%
    05:00 +15°C° 0 mm 0 mps 608 mmHg 78%
    06:00 +18°C° 0 mm 1 mps 609 mmHg 71%
    07:00 +19°C° 0 mm 1 mps 610 mmHg 64%
    08:00 +22°C° 0 mm 1 mps 611 mmHg 53%
    09:00 +25°C° 0 mm 1 mps 612 mmHg 42%
    10:00 +28°C° 0 mm 1 mps 613 mmHg 31%
    11:00 +29°C° 0 mm 2 mps 613 mmHg 30%
    12:00 +29°C° 0 mm 2 mps 612 mmHg 28%
    13:00 +30°C° 0 mm 3 mps 612 mmHg 27%
    14:00 +29°C° 0 mm 3 mps 611 mmHg 30%
    15:00 +28°C° 0 mm 4 mps 610 mmHg 33%
    16:00 +27°C° 0 mm 4 mps 609 mmHg 36%
    17:00 +25°C° 0.1 mm 4 mps 609 mmHg 43%
    18:00 +22°C° 0.1 mm 3 mps 609 mmHg 50%
    19:00 +20°C° 0.1 mm 3 mps 609 mmHg 57%
    20:00 +19°C° 0 mm 2 mps 609 mmHg 62%
    21:00 +18°C° 0 mm 2 mps 609 mmHg 67%
    22:00 +17°C° 0 mm 2 mps 609 mmHg 72%
    23:00 +16°C° 0 mm 1 mps 609 mmHg 75%

    24 November, Saturday

    Time Temperature Precipitation Wind Pressure Humidity
    00:00 +15°C° 0 mm 1 mps 608 mmHg 78%
    01:00 +15°C° 0 mm 1 mps 608 mmHg 81%
    02:00 +14°C° 0 mm 1 mps 608 mmHg 81%
    03:00 +14°C° 0 mm 1 mps 607 mmHg 82%
    04:00 +13°C° 0 mm 0 mps 607 mmHg 82%
    05:00 +14°C° 0 mm 0 mps 608 mmHg 74%
    06:00 +16°C° 0 mm 0 mps 609 mmHg 66%
    07:00 +17°C° 0 mm 0 mps 610 mmHg 58%
    08:00 +22°C° 0 mm 1 mps 611 mmHg 48%
    09:00 +25°C° 0 mm 1 mps 612 mmHg 38%
    10:00 +27°C° 0 mm 1 mps 613 mmHg 28%
    11:00 +28°C° 0 mm 2 mps 613 mmHg 26%
    12:00 +30°C° 0 mm 2 mps 613 mmHg 23%
    13:00 +31°C° 0 mm 3 mps 612 mmHg 21%
    14:00 +30°C° 0 mm 3 mps 611 mmHg 23%
    15:00 +29°C° 0 mm 4 mps 611 mmHg 25%
    16:00 +28°C° 0 mm 5 mps 610 mmHg 27%
    17:00 +26°C° 0 mm 4 mps 610 mmHg 35%
    18:00 +22°C° 0 mm 3 mps 609 mmHg 42%
    19:00 +20°C° 0 mm 3 mps 609 mmHg 49%
    20:00 +19°C° 0 mm 2 mps 609 mmHg 54%
    21:00 +17°C° 0 mm 2 mps 609 mmHg 58%
    22:00 +16°C° 0 mm 1 mps 609 mmHg 63%
    23:00 +16°C° 0 mm 1 mps 608 mmHg 65%
    Show more